Tracking 29892 objects as of 21-Nov-2024
HD Live streaming from Space Station
objects crossing your sky now

DMSP 5D-2 F11 DEB

Track DMSP 5D-2 F11 DEB now!
10-day predictions


NORAD ID: 29077
Int'l Code: 1991-082BY
Perigee: 733.8 km
Apogee: 836.0 km
Inclination: 98.7 °
Period: 100.4 minutes
Semi major axis: 7155 km
RCS: 0.008 m2 (small)
Launch date: November 28, 1991
Source: United States (US)
Launch site: AIR FORCE WESTERN TEST RANGE (AFWTR)

Note: This is SATELLITE DEBRIS
Your satellite tracking list
Your tracking list is empty




NASA's NSSDC Master Catalog

Two Line Element Set (TLE):
1 29077U 91082BY  24325.80111983  .00019277  00000-0  66835-2 0  9998
2 29077  98.6983  90.2935 0071404  97.5912 263.3390 14.34176343 49103
Source of the keplerian elements: AFSPC